COSMOS 2251 DEB, 34761

Orbit data source: Space-Track

COSMOS 2251 DEB, 34761 is space debris in LEO originally from a launch on Wed, 16 Jun 1993 UTC launched from the Plesetsk Missile And Space Complex (PKMTR). The debris from Iridium 33, an American commercial communications satellite, has been tracked extensively since its accidental collision with the defunct Russian satellite Cosmos 2251 in 2009. This event, occurring at high speed in low Earth orbit (LEO), generated thousands of pieces of space debris, significantly increasing the risk of further collisions. The Iridium 33 debris cloud has impacted space traffic management and orbital debris mitigation strategies, making it a subject of ongoing study in space situational awareness.

Loading next visibility...
Identifier
34761, 1993-036AAF
Orbit
LEO
Country
Flag of CISCIS
Related business
Manufacturer
Unknown
Mission
Spacecraft
Bus & Motor
Unknown
Mass
Unknown
Launch date (UTC)
1993-06-16 (32 years ago)
Launch vehicle
Unknown
Launch site
Plesetsk Missile And Space Complex (PKMTR)
Object type
Payload
Rocket body
Debris
Shape & HBR
Unknown shape, 0.1 m
Radar Cross Section
Small (<0.1 m²)

Expand to show TLE details & history
Last TLE update: 9 hours ago

TLE from 9 hours ago
0 COSMOS 2251 DEB
1 34761U 93036AAF 25307.76863125  .00002294  00000-0  76334-3 0  9990
2 34761  74.0282  74.5937 0036987 121.6630 238.8140 14.37829120870898
Epoch: 2025-11-03T18:26Z
TLE epoch observation values (Epoch: 2025-11-03T18:26:49.740Z)
Latitude
-0.00001°
Longitude
114.62119°
Altitude
782.049 km
Speed
7.456 km/s
True Right ascension
04h 58m 22s
True Declination
0° 00' 00"
Sunlit
Object was in full shadow at epoch
Visualization orbit readout
Latitude
Unknown
Longitude
Unknown
Altitude
Unknown
Speed
Unknown
Apparent Right ascension
Unknown
Apparent Declination
Unknown
Sunlit
N/A
Visualization observer readout
Local Sidereal Time
23:15:47
Azimuth
Unknown
Elevation
Unknown
Doppler factor
Unknown
Orbital elements
Apogee altitude
789.717 km
Perigee altitude
736.889 km
Semi-major axis
7,141.44 km
Eccentricity
0.0037
Inclination
74.0282°
RAAN
74.5937°
Arg. of periapsis
121.663°
True anomaly
238.45228°
Mean anomaly
238.814°
Eccentric anomaly
238.63305°
Mean motion
3.59637 °/min
Orbital period
100.1 mins
BSTAR
0.00076334

Documentation

Showing up to 5 results
|